Regional Weather Roundup
Issued by NWS Upton, NY

Current Version | Previous Version | Graphics & Text | Print | Product List | Glossary Off
Versions: 1 2 3 4 5 6 7 8 9 10 11 12 13 14 15 16 17 18 19 20 21 22 23 24 25 26 27 28 29 30 31 32 33 34 35 36 37 38 39 40 41 42 43 44 45 46 47 48 49 50

000
ASUS41 KOKX 300305
RWROKX
REGIONAL WEATHER ROUNDUP
NATIONAL WEATHER SERVICE NEW YORK NY
1100 PM EDT TUE JUL 29 2014

NOTE: "FAIR" INDICATES FEW OR NO CLOUDS BELOW 12,000 FEET WITH NO
SIGNIFICANT WEATHER AND/OR OBSTRUCTIONS TO VISIBILITY.

NYZ071-072-176-178-NJZ106-104-300400-
NEW YORK CITY METRO AREA


CITY           SKY/WX    TMP DP  RH WIND       PRES   REMARKS
CENTRAL PARK   CLEAR     69  51  52 NW5       30.00R
LAGUARDIA APRT PTCLDY    70  52  52 N6        29.97R
KENNEDY INTL   MOCLDY    70  50  49 NW9       29.98R
NEWARK/LIBERTY PTCLDY    68  51  54 NW6       29.98R
BRNX BOT. GARD   N/A     66  52  59 W5        29.98R
TETERBORO      CLEAR     69  52  54 CALM      29.97R
$$

NYZ177-179-078>081-300400-
LONG ISLAND NEW YORK

CITY           SKY/WX    TMP DP  RH WIND       PRES   REMARKS
FARMINGDALE    CLEAR     67  51  56 NW5       29.97R
ISLIP          MOCLDY    70  53  54 CALM      29.95R
SHIRLEY        CLOUDY    64  55  72 CALM      29.97R
WESTHAMPTON    CLEAR     57  51  80 CALM      29.98R
MONTAUK POINT    N/A     67  62  84 CALM      29.97R
$$

NYZ052-065-067-300400-
HUDSON VALLEY

CITY           SKY/WX    TMP DP  RH WIND       PRES   REMARKS
WHITE PLAINS   CLEAR     63  54  72 NW3       29.97R
NEWBURGH       MOCLDY    63  57  82 W7        29.99R
MONTGOMERY     CLOUDY    62  56  80 S3        29.97F
POUGHKEEPSIE   CLOUDY    64  58  80 CALM      29.96S
ALBANY         MOCLDY    64  53  67 W6        29.96S
$$

NJZ001-105-106-008-010-013-015-019>022-104-300400-
NEW JERSEY

CITY           SKY/WX    TMP DP  RH WIND       PRES   REMARKS
NEWARK/LIBERTY PTCLDY    68  51  54 NW6       29.98R
TETERBORO      CLEAR     69  52  54 CALM      29.97R
CALDWELL       CLEAR     62  53  72 S3        29.99R
MORRISTOWN     CLEAR     61  55  82 CALM      29.99R
SOMERVILLE     PTCLDY    59  56  89 NW3       29.97R
LINDEN         FAIR      67  54  62 NW5       29.99S
SUSSEX         CLOUDY    63  56  78 CALM      29.99S
ANDOVER          N/A     56  55  97 S3        30.00S
TRENTON        CLOUDY    65  54  67 N3        29.98R
MILLVILLE      CLOUDY    65  60  84 W3        29.99R
ATLANTIC CITY  CLOUDY    67  60  78 CALM      29.98R
WRIGHTSTOWN    MOCLDY    64  57  79 CALM      29.96S
TOMS RIVER     CLOUDY    63  57  82 CALM      29.98S
BELMAR         PTCLDY    66  55  68 CALM      29.98S
$$

PAZ047>061-062-071-300400-
EASTERN PENNSYLVANIA

CITY           SKY/WX    TMP DP  RH WIND       PRES   REMARKS
PHILADELPHIA   CLOUDY    71  53  52 NW8       29.99R
ALLENTOWN      CLEAR     60  52  74 CALM      30.00R
SCRANTON       PTCLDY    58  52  80 CALM      30.00S
$$

CTZ002-004>006-009-010-012-RIZ004-006-007-MAZ004-011-015-300400-
SOUTHERN NEW ENGLAND
 IN CT

CITY           SKY/WX    TMP DP  RH WIND       PRES   REMARKS
BRADLEY INTL   PTCLDY    63  54  72 NW3       29.95R
HARTFORD       MOCLDY    65  56  72 CALM      29.95R
DANBURY        MOCLDY    61  55  81 SW5       29.98S
WTRBRY/OXFORD  MOCLDY    61  54  77 CALM      29.99S
BRIDGEPORT     CLOUDY    69  57  65 CALM      29.96R
MERIDEN        MOCLDY    60  57  89 CALM      29.96R
NEW HAVEN      PTCLDY    65  55  70 CALM      29.96R
CHESTER        CLOUDY    64  55  72 CALM      29.97S
GROTON         CLEAR     60  58  92 CALM      29.95R
WILLIMANTIC    CLEAR     60  57  89 CALM      29.96S

 IN RI

CITY           SKY/WX    TMP DP  RH WIND       PRES   REMARKS
PROVIDENCE     PTCLDY    65  56  72 W5        29.95R
BLOCK ISLAND   CLEAR     66  59  77 SW8       29.96R
WESTERLY       CLEAR     63  59  87 CALM      29.96R

 IN MA

CITY           SKY/WX    TMP DP  RH WIND       PRES   REMARKS
BOSTON         PTCLDY    70  54  56 W6        29.93R
WORCESTER      PTCLDY    59  53  80 W7        29.97R
WESTFIELD      CLEAR     57  55  93 CALM      29.95S
PROVINCETOWN   CLEAR     64  61  88 SW8       29.93S
NANTUCKET      CLEAR     65  61  87 W6        29.96R
$$

ANZ330-335-338-340-345-350-353-355-300400-
COASTAL MARINE OBSERVATIONS


STATION/POSITION TIME  SKY/WX   TEMP    WIND        PRES    VSBY  WAVE
                                AIR SEA DIR/SP/G                  HT/PER
                 (UTC)          (F)     (DEG/KT/KT) (MB)    (MI)  (FT/S)
NY HARB ENTRANCE NOT AVBL
4S FIRE IS       NOT AVBL
23SW MTP         0300            69 69              1014.1          3/ 8
HUDSON CANYON    0300            71 75  240/  6/  8 1015.0          3/ 8
EXECUTION ROCKS  0300            70 70  270/  6/  8   N/A
WESTERN LI SOUND 0300            70     310/  8/ 10   N/A           0
CENTRAL LI SOUND 0200            71 71  330/  6/  6   N/A           0
EASTERN LI SOUND 0200            67 68   CALM  /  4   N/A
ROBBINS REEF     0300            70     340/  6/  8   N/A
$$


>>>>>>>>>>>>>>>>>>>>>>>>>>>> KEY <<<<<<<<<<<<<<<<<<<<<<<<<<<
>                                                          <
>     SKY/WX - SKY CONDITION/PRESENT WEATHER               <
>     TMP    - TEMPERATURE IN FAHRENHEIT                   <
>     DP     - DEWPOINT IN FAHRENHEIT                      <
>     RH     - RELATIVE HUMIDITY IN PERCENT                <
>     WIND   - DIRECTION AND SPEED IN MPH                  <
>     PRES   - MEAN SEA LEVEL PRESSURE IN INCHES OF HG     <
>     WCI    - WIND CHILL INDEX                            <
>     VSB    - VISIBILITY IN MILES                         <
>     HX     - HEAT INDEX                                  <
>     TC     - TEMPERATURE IN CELSIUS                      <
>     VRB    - VARIABLE WIND DIRECTION                     <
>                                                          <
>>>>>>>>>>>>>>>>>>>>>>>>>>>> KEY <<<<<<<<<<<<<<<<<<<<<<<<<<<




USA.gov is the U.S. government's official web portal to all federal, state and local government web resources and services.